Regional Weather Roundup
Issued by NWS Little Rock, AR

Current Version | Previous Version | Text Only | Print | Product List | Glossary On
Versions: 1 2 3 4 5 6 7 8 9 10 11 12 13 14 15 16 17 18 19 20 21 22 23 24 25 26 27 28 29 30 31 32 33 34 35 36 37 38 39 40 41 42 43 44 45
000
ASUS44 KLZK 292305
RWRLZK

WEATHER ROUNDUP FOR ARKANSAS
NATIONAL WEATHER SERVICE LITTLE ROCK AR
600 PM CDT WED JUL 29 2015

NOTE: "FAIR" INDICATES FEW OR NO CLOUDS BELOW 12,000 FEET WITH NO
SIGNIFICANT WEATHER AND/OR OBSTRUCTIONS TO VISIBILITY.

ARZ001-003-010-029-300000-
NORTHWEST ARKANSAS

CITY           SKY/WX    TMP DP  RH WIND       PRES   REMARKS
FAYETTEVILLE   SUNNY     91  72  53 SW6       30.05F HX  98
FORT SMITH     SUNNY     96  65  35 NE9       29.99S HX  98
HARRISON       SUNNY     92  71  50 VRB3      30.06S HX  98
BENTONVILLE    SUNNY     93  68  43 W5        30.07F HX  97
ROGERS         SUNNY     92  69  47 MISG      30.07S HX  97
SILOAM SPGS    MOSUNNY   90  70  51 CALM      30.04F HX  95
HIGHFILL       SUNNY     92  71  50 SW3       30.06S HX  98
SPRINGDALE     MOSUNNY   93  70  46 CALM      30.08S HX  99
$$

ARZ004-005-016-300000-
NORTH CENTRAL ARKANSAS

CITY           SKY/WX    TMP DP  RH WIND       PRES   REMARKS
BATESVILLE     SUNNY     93  75  55 W6        29.99S HX 104
FLIPPIN        SUNNY     93  72  49 W7        30.01S HX 100
MTN HOME       SUNNY     92  74  55 CALM      30.02S HX 101
$$

ARZ040-041-300000-
WEST CENTRAL ARKANSAS

CITY           SKY/WX    TMP DP  RH WIND       PRES   REMARKS
MENA           PTSUNNY   99  64  32 CALM      30.01S HX 101
MOUNT IDA      MOSUNNY   98  68  37 VRB3      29.98S HX 103
$$

ARZ009-017-025-026-028-300000-
NORTHEAST ARKANSAS

CITY           SKY/WX    TMP DP  RH WIND       PRES   REMARKS
JONESBORO      MOSUNNY   93  77  59 NW5       29.96S HX 107
NEWPORT        SUNNY     97  74  47 VRB7      29.98S HX 108
WALNUT RIDGE   SUNNY     97  72  44 NW10      29.96S HX 105
BLYTHEVILLE    SUNNY     94  81  66 NW7       29.95F HX 115
$$

ARZ022-023-033-042-044-300000-
CENTRAL ARKANSAS

CITY           SKY/WX    TMP DP  RH WIND       PRES   REMARKS
LITTLE ROCK    MOSUNNY   98  70  40 S5        29.96S HX 105
N LITTLE ROCK  MOSUNNY   99  73  42 N3        29.96S HX 108
JACKSONVILLE   MOSUNNY   99  73  43 E6        29.96F HX 108
SEARCY         SUNNY     96  74  48 NW5       29.98S HX 107
HOT SPRINGS    PTSUNNY   99  68  36 SW7       29.98S HX 104
RUSSELLVILLE   SUNNY     98  67  36 VRB5      29.98S HX 102
CLINTON        FAIR      95  77  55 NW3       30.01S HX 109
$$

ARZ036-300000-
EAST ARKANSAS

CITY           SKY/WX    TMP DP  RH WIND       PRES   REMARKS
WEST MEMPHIS   SUNNY     94  79  61 NW3       29.95F HX 111
$$

ARZ050-053-066-070-073-300000-
SOUTHWEST ARKANSAS

CITY           SKY/WX    TMP DP  RH WIND       PRES   REMARKS
ARKADELPHIA    FAIR     102  70  35 SW7       29.96F HX 109
CAMDEN         SUNNY     99  68  36 NW3       29.96F HX 104
TEXARKANA      SUNNY     98  69  38 S5        29.98F HX 104
EL DORADO      SUNNY     98  69  38 NW3       29.97F HX 104
DE QUEEN       SUNNY     97  70  41 SW6       29.95F HX 103
$$

ARZ056-057-069-300000-
SOUTHEAST ARKANSAS

CITY           SKY/WX    TMP DP  RH WIND       PRES   REMARKS
PINE BLUFF     SUNNY     98  75  47 E3        29.96F HX 110
STUTTGART      SUNNY     99  72  41 NW3       29.97S HX 107
MONTICELLO     SUNNY     98  73  44 NE5       29.97S HX 108

$$




USA.gov is the U.S. government's official web portal to all federal, state and local government web resources and services.